Regional Weather Roundup
Issued by NWS

Home | Current Version | Previous Version | Graphics & Text | Print | Product List | Glossary On
Versions: 1 2 3 4 5 6 7 8 9 10 11 12 13 14 15 16 17 18 19 20 21 22 23 24 25 26 27 28 29 30 31 32 33 34 35 36 37 38 39 40 41 42 43 44 45 46 47 48 49 50
000
ASUS44 KMEG 010210
RWRTN
TENNESSEE HOURLY STATE WEATHER ROUNDUP
NATIONAL WEATHER SERVICE MEMPHIS TN
900 PM CDT TUE MAY 31 2016

TNZ002-004-019-021-049-052-054-088>092-010300-
WEST TENNESSEE

CITY           SKY/WX    TMP DP  RH WIND       PRES   REMARKS
MEMPHIS INTL   PTCLDY    79  68  69 CALM      29.91R
NWS MEMPHIS      N/A     74 N/A N/A MISG        N/A
JACKSON        CLEAR     73  68  84 CALM      29.92R
DYERSBURG      CLEAR     75  66  73 CALM      29.91R
UNION CITY     CLOUDY    75  70  83 CALM      29.90S
PARIS          CLEAR     72  66  83 CALM      29.93R
LEXINGTON      CLEAR     72  66  83 CALM      29.92R
$$

TNZ008-025-027-028-033-062-065-066-010300-
NORTH MIDDLE TENNESSEE

CITY           SKY/WX    TMP DP  RH WIND       PRES   REMARKS
NASHVILLE      PTCLDY    78  59  51 CALM      29.92R
CLARKSVILLE    PTCLDY    76  63  64 CALM      29.92R
SMYRNA         CLEAR     77  65  66 CALM      29.93R
COOKEVILLE     CLEAR     70  66  88 CALM      29.95R
CROSSVILLE     CLEAR     72  65  78 CALM      30.01R
$$

TNZ061-075-076-078-094-096-097-010300-
SOUTH MIDDLE TENNESSEE

CITY           SKY/WX    TMP DP  RH WIND       PRES   REMARKS
FAYETTEVILLE   CLEAR     77  66  69 CALM      29.94R
TULLAHOMA      CLEAR     73  66  78 CALM      29.96R
WINCHESTER     CLEAR     75  66  73 CALM      29.94R
MCMINNVILLE    CLEAR     73  64  73 CALM      29.95S
COLUMBIA       CLEAR     75  75 100 CALM      29.92R
SHELBYVILLE    CLEAR     75  64  69 CALM      29.94R
$$

TNZ017-018-042-046-047-010300-
NORTHEAST TENNESSEE

CITY           SKY/WX    TMP DP  RH WIND       PRES   REMARKS
TRI CITIES     MOCLDY    70  61  73 N3        30.01R
$$

TNZ012-013-036-069-073-074-010300-
CENTRAL EAST TENNESSEE

CITY           SKY/WX    TMP DP  RH WIND       PRES   REMARKS
KNOXVILLE      PTCLDY    78  63  59 NE5       29.94R
OAK RIDGE      CLEAR     77  62  59 CALM      29.96R
GATLINBURG     CLEAR     70  63  78 CALM      29.96R
$$

TNZ083-085-099-010300-
SOUTHEAST TENNESSEE

CITY           SKY/WX    TMP DP  RH WIND       PRES   REMARKS
CHATTANOOGA    PTCLDY    80  61  52 CALM      29.92R
$$

SKY/WX REPORTED AS FAIR MEANS FEW OR NO CLOUDS BELOW
12 THOUSAND FEET.





USA.gov is the U.S. government's official web portal to all federal, state and local government web resources and services.